Location: North Runcton
(52.7000°N, 0.4333°E)
Time: 20:17:41
(UTC+00:00)

Cosmos 2082 Rocket - Pass Details

Date: 19 May 2025
Orbit: 832 x 853 km, 71.0° (Epoch: 18 June)

Event Time Altitude Azimuth Distance (km) Brightness Sun altitude
Exits shadow 23:23:37 - 229° (SW) 2,617 4.4 -17.0°
Reaches altitude 10° 23:24:05 10° 230° (SW) 2,439 4.3 -17.0°
Maximum altitude 23:29:34 55° 308° (NW) 1,000 2.8 -17.1°
Drops below altitude 10° 23:35:07 10° 26° (NNE) 2,462 5.5 -17.2°
Sets 23:37:38 0° 31° (NNE) 3,403 6.3 -17.2°
